Du Bois, PA

6:42 AM EDT on April 25, 2017 (GMT -0400)
Du Bois-Jefferson County

Weather History for KDUJ - October, 2011

Change the Weather History Date:

Monday, October 31, 2011

  Actual Average Record
Temperature  
Mean Temperature 38 °F 45 °F  
Max Temperature 45 °F 54 °F 72 °F (2003)
Min Temperature 32 °F 36 °F 19 °F (1975)
Degree Days  
Heating Degree Days 26 20  
Month to date heating degree days 325 495  
Since 1 July heating degree days 325 743  
Cooling Degree Days 0 0  
Month to date cooling degree days 0 2  
Year to date cooling degree days 0 362  
Moisture  
Dew Point 31 °F    
Average Humidity 75    
Maximum Humidity 85    
Minimum Humidity 65    
Precipitation  
Precipitation T in 0.11 in 0.55 in (1976)
Month to date precipitation 2.72 3.15  
Sea Level Pressure  
Sea Level Pressure 30.24 in    
Wind  
Wind Speed 8 mph (SE)    
Max Wind Speed 14 mph    
Max Gust Speed 17 mph    
Visibility 10 miles    
Events      
T = Trace of Precipitation, MM = Missing Value Source: NWS Daily Summary

Daily Weather History Graph

Daily Weather History Graph

Search for Another Location

Airport or City:

Trip Planner

Search our weather history database for the weather conditions in past years. The results will help you decide how hot, cold, wet, or windy it might be!

Date:

Astronomy

Oct. 31, 2011 Rise Set
Actual Time 7:45 AM EDT 6:12 PM EDT
Civil Twilight 7:16 AM EDT 6:41 PM EDT
Nautical Twilight 6:44 AM EDT 7:13 PM EDT
Astronomical Twilight 6:12 AM EDT 7:45 PM EDT
Moon 12:52 PM EDT (10/31) 10:45 PM EDT (10/31)
Length of Visible Light 11h 24m
Length of Day
10h 27m
Waxing Crescent, 29% of the Moon is Illuminated
Oct 31
Waxing Crescent
Nov 2
First Quarter
Nov 10
Full
Nov 18
Last Quarter
Nov 25
New

Hourly Weather History & Observations

Time (EDT) Temp. Windchill Dew Point Humidity Pressure Visibility Wind Dir Wind Speed Gust Speed Precip Events Conditions
12:56 AM 33.1 °F 26.9 °F 28.9 °F 85% 30.29 in 10.0 mi SE 6.9 mph - N/A   Clear
1:56 AM 32.0 °F 26.4 °F 28.9 °F 88% 30.29 in 10.0 mi ESE 5.8 mph - N/A   Clear
2:56 AM 33.1 °F 26.1 °F 28.9 °F 85% 30.28 in 10.0 mi ESE 8.1 mph - N/A   Clear
3:56 AM 33.1 °F 24.9 °F 28.9 °F 85% 30.26 in 10.0 mi ESE 10.4 mph - N/A   Clear
4:56 AM 34.0 °F 27.2 °F 28.9 °F 82% 30.25 in 10.0 mi SE 8.1 mph - N/A   Clear
5:56 AM 33.1 °F 26.1 °F 28.0 °F 82% 30.25 in 10.0 mi ESE 8.1 mph - N/A   Clear
6:56 AM 34.0 °F 27.2 °F 28.0 °F 79% 30.24 in 10.0 mi ESE 8.1 mph - N/A   Clear
7:56 AM 33.1 °F 25.5 °F 28.0 °F 82% 30.24 in 10.0 mi ESE 9.2 mph - N/A   Clear
8:56 AM 34.0 °F 26.6 °F 28.9 °F 82% 30.25 in 10.0 mi ESE 9.2 mph - N/A   Clear
9:56 AM 36.0 °F 29.0 °F 28.9 °F 76% 30.24 in 10.0 mi SE 9.2 mph - N/A   Clear
10:56 AM 37.9 °F 30.9 °F 30.0 °F 73% 30.23 in 10.0 mi SE 10.4 mph - N/A   Clear
11:56 AM 41.0 °F 35.2 °F 32.0 °F 70% 30.22 in 10.0 mi SE 9.2 mph - N/A   Clear
12:56 PM 43.0 °F 38.2 °F 32.0 °F 65% 30.20 in 10.0 mi SE 8.1 mph - N/A   Scattered Clouds
1:56 PM 45.0 °F 40.6 °F 34.0 °F 65% 30.18 in 10.0 mi SE 8.1 mph - N/A   Overcast
2:56 PM 45.0 °F 40.6 °F 34.0 °F 65% 30.17 in 10.0 mi SE 8.1 mph - N/A   Overcast
3:56 PM 44.1 °F 38.1 °F 33.1 °F 65% 30.18 in 10.0 mi SE 11.5 mph - N/A   Overcast
4:56 PM 43.0 °F 38.2 °F 32.0 °F 65% 30.19 in 10.0 mi SE 8.1 mph - N/A   Overcast
5:56 PM 43.0 °F 38.8 °F 32.0 °F 65% 30.21 in 10.0 mi SE 6.9 mph - N/A   Overcast
6:56 PM 41.0 °F 35.8 °F 33.1 °F 73% 30.23 in 10.0 mi SE 8.1 mph - N/A   Overcast
7:56 PM 39.9 °F 35.1 °F 34.0 °F 79% 30.25 in 10.0 mi SE 6.9 mph - N/A   Overcast
8:56 PM 39.0 °F 34.0 °F 34.0 °F 82% 30.25 in 10.0 mi SE 6.9 mph - N/A   Overcast
9:56 PM 39.0 °F 34.0 °F 34.0 °F 82% 30.26 in 10.0 mi ESE 6.9 mph - N/A   Overcast
10:56 PM 39.0 °F 35.7 °F 34.0 °F 82% 30.27 in 10.0 mi ESE 4.6 mph - N/A   Overcast
11:56 PM 39.0 °F 36.8 °F 34.0 °F 82% 30.26 in 10.0 mi SE 3.5 mph - N/A   Overcast